H1 CPF 2 NER 2025 11 3 9 307 01 glonass137 H2 1705501 9137 42939 2025 11 3 0 0 0 2025 11 6 23 45 0 900 1 1 0 0 0 1 H9 10 0 60982 0.00000 0 -19485286.442 -445493.969 16477530.572 10 0 60982 900.00000 0 -17494916.246 -1280361.502 18537614.954 10 0 60982 1800.00000 0 -15366381.445 -2366582.814 20238224.725 10 0 60982 2700.00000 0 -13164712.754 -3701625.397 21546364.142 10 0 60982 3600.00000 0 -10954898.873 -5270645.675 22436630.512 10 0 60982 4500.00000 0 -8799316.558 -7046883.760 22891705.802 10 0 60982 5400.00000 0 -6755285.373 -8992567.252 22902693.980 10 0 60982 6300.00000 0 -4872847.948 -11060287.988 22469297.621 10 0 60982 7200.00000 0 -3192867.306 -13194795.981 21599830.192 10 0 60982 8100.00000 0 -1745519.691 -15335137.407 20311063.241 10 0 60982 9000.00000 0 -549245.088 -17417048.966 18627910.716 10 0 60982 9900.00000 0 389801.274 -19375509.930 16582955.534 10 0 60982 10800.00000 0 1077773.881 -21147346.218 14215826.573 10 0 60982 11700.00000 0 1532637.654 -22673778.122 11572437.108 10 0 60982 12600.00000 0 1783165.671 -23902805.134 8704098.669 10 0 60982 13500.00000 0 1867476.430 -24791327.631 5666526.913 10 0 60982 14400.00000 0 1831172.773 -25306915.832 2518758.555 10 0 60982 15300.00000 0 1725161.692 -25429150.922 -677999.437 10 0 60982 16200.00000 0 1603248.042 -25150481.139 -3861565.580 10 0 60982 17100.00000 0 1519605.017 -24476556.049 -6970000.544 10 0 60982 18000.00000 0 1526229.700 -23426024.319 -9942820.113 10 0 60982 18900.00000 0 1670492.743 -22029803.160 -12722179.873 10 0 60982 19800.00000 0 1992887.252 -20329850.020 -15254007.641 10 0 60982 20700.00000 0 2525073.421 -18377488.296 -17489060.806 10 0 60982 21600.00000 0 3288302.749 -16231357.637 -19383887.513 10 0 60982 22500.00000 0 4292289.462 -13955075.148 -20901672.771 10 0 60982 23400.00000 0 5534577.580 -11614705.792 -22012953.073 10 0 60982 24300.00000 0 7000431.066 -9276148.009 -22696185.955 10 0 60982 25200.00000 0 8663252.297 -7002543.734 -22938163.914 10 0 60982 26100.00000 0 10485511.818 -4851820.664 -22734265.212 10 0 60982 27000.00000 0 12420150.858 -2874468.653 -22088537.319 10 0 60982 27900.00000 0 14412398.318 -1111642.020 -21013611.884 10 0 60982 28800.00000 0 16401926.550 406334.291 -19530453.336 10 0 60982 29700.00000 0 18325256.145 1660993.857 -17667946.307 10 0 60982 30600.00000 0 20118309.521 2646251.912 -15462330.052 10 0 60982 31500.00000 0 21719006.820 3368402.318 -12956490.952 10 0 60982 32400.00000 0 23069795.871 3845590.313 -10199126.884 10 0 60982 33300.00000 0 24120010.651 4106784.851 -7243799.666 10 0 60982 34200.00000 0 24827959.779 4190295.277 -4147894.051 10 0 60982 35100.00000 0 25162657.896 4141896.159 -971503.541 10 0 60982 36000.00000 0 25105127.658 4012640.424 2223735.293 10 0 60982 36900.00000 0 24649218.104 3856453.954 5375837.184 10 0 60982 37800.00000 0 23801905.313 3727613.813 8423668.072 10 0 60982 38700.00000 0 22583063.008 3678217.039 11308127.231 10 0 60982 39600.00000 0 21024712.778 3755747.123 13973288.845 10 0 60982 40500.00000 0 19169785.302 4000841.085 16367481.182 10 0 60982 41400.00000 0 17070444.119 4445351.461 18444282.912 10 0 60982 42300.00000 0 14786041.598 5110785.102 20163417.786 10 0 60982 43200.00000 0 12380791.736 6007184.886 21491531.021 10 0 60982 44100.00000 0 9921255.979 7132501.984 22402832.984 10 0 60982 45000.00000 0 7473745.782 8472485.906 22879598.237 10 0 60982 45900.00000 0 5101748.932 10001098.155 22912510.663 10 0 60982 46800.00000 0 2863485.546 11681433.537 22500848.122 10 0 60982 47700.00000 0 809694.352 13467112.196 21652502.843 10 0 60982 48600.00000 0 -1018259.611 15304085.744 20383836.716 10 0 60982 49500.00000 0 -2589877.927 17132783.550 18719373.492 10 0 60982 50400.00000 0 -3886560.783 18890510.746 16691332.932 10 0 60982 51300.00000 0 -4902135.436 20513998.650 14339014.875 10 0 60982 52200.00000 0 -5642859.503 21942001.448 11708044.140 10 0 60982 53100.00000 0 -6126899.278 23117830.462 8849490.084 10 0 60982 54000.00000 0 -6383305.428 23991719.456 5818877.278 10 0 60982 54900.00000 0 -6450529.634 24522921.025 2675106.267 10 0 60982 55800.00000 0 -6374545.386 24681445.067 -520694.513 10 0 60982 56700.00000 0 -6206653.095 24449365.179 -3706362.870 10 0 60982 57600.00000 0 -6001063.321 23821636.976 -6819919.092 10 0 60982 58500.00000 0 -5812361.522 22806392.964 -9800779.689 10 0 60982 59400.00000 0 -5692962.916 21424700.825 -12590944.003 10 0 60982 60300.00000 0 -5690666.421 19709794.802 -15136129.714 10 0 60982 61200.00000 0 -5846412.441 17705812.243 -17386834.315 10 0 60982 62100.00000 0 -6192340.403 15466088.313 -19299301.413 10 0 60982 63000.00000 0 -6750229.066 13051080.437 -20836372.827 10 0 60982 63900.00000 0 -7530386.201 10526009.558 -21968209.939 10 0 60982 64800.00000 0 -8531035.029 7958316.881 -22672870.576 10 0 60982 65700.00000 0 -9738223.745 5415042.224 -22936730.721 10 0 60982 66600.00000 0 -11126262.239 2960233.094 -22754743.404 10 0 60982 67500.00000 0 -12658667.984 652491.884 -22130530.383 10 0 60982 68400.00000 0 -14289581.642 -1457237.460 -21076305.360 10 0 60982 69300.00000 0 -15965593.241 -3327552.218 -19612630.685 10 0 60982 70200.00000 0 -17627902.630 -4928066.013 -17768012.576 10 0 60982 71100.00000 0 -19214723.900 -6240416.382 -15578342.894 10 0 60982 72000.00000 0 -20663833.216 -7258764.393 -13086198.423 10 0 60982 72900.00000 0 -21915153.488 -7989767.259 -10340011.273 10 0 60982 73800.00000 0 -22913267.710 -8452026.859 -7393126.513 10 0 60982 74700.00000 0 -23609755.713 -8675039.011 -4302765.388 10 0 60982 75600.00000 0 -23965256.433 -8697689.207 -1128914.295 10 0 60982 76500.00000 0 -23951169.311 -8566359.440 2066838.844 10 0 60982 77400.00000 0 -23550923.502 -8332727.002 5222498.077 10 0 60982 78300.00000 0 -22760761.711 -8051348.903 8276859.585 10 0 60982 79200.00000 0 -21590005.780 -7777134.400 11170695.247 10 0 60982 80100.00000 0 -20060792.805 -7562812.629 13847896.756 10 0 60982 81000.00000 0 -18207292.613 -7456502.374 16256558.388 10 0 60982 81900.00000 0 -16074438.928 -7499486.476 18349977.896 10 0 60982 82800.00000 0 -13716226.683 -7724284.739 20087556.654 10 0 60982 83700.00000 0 -11193645.738 -8153106.558 21435582.275 10 0 60982 84600.00000 0 -8572336.125 -8796748.626 22367879.193 10 0 60982 85500.00000 0 -5920061.350 -9653984.555 22866315.127 10 0 60983 0.00000 0 -3304103.807 -10711472.667 22921154.044 10 0 60983 900.00000 0 -788687.958 -11944187.509 22531248.856 10 0 60983 1800.00000 0 1567459.393 -13316356.787 21704069.944 10 0 60983 2700.00000 0 3713316.038 -14782867.744 20455568.633 10 0 60983 3600.00000 0 5607444.210 -16291084.160 18809877.285 10 0 60983 4500.00000 0 7219467.194 -17782999.636 16798851.018 10 0 60983 5400.00000 0 8531081.507 -19197637.916 14461458.867 10 0 60983 6300.00000 0 9536562.838 -20473600.282 11843035.143 10 0 60983 7200.00000 0 10242744.928 -21551653.373 8994404.696 10 0 60983 8100.00000 0 10668472.667 -22377248.577 5970898.443 10 0 60983 9000.00000 0 10843552.845 -22902866.496 2831277.976 10 0 60983 9900.00000 0 10807247.289 -23090086.930 -363409.708 10 0 60983 10800.00000 0 10606372.700 -22911296.114 -3551024.671 10 0 60983 11700.00000 0 10293088.343 -22350958.072 -6669549.795 10 0 60983 12600.00000 0 9922466.205 -21406395.381 -9658305.220 10 0 60983 13500.00000 0 9549947.564 -20088045.391 -12459136.846 10 0 60983 14400.00000 0 9228794.784 -18419180.290 -15017554.864 10 0 60983 15300.00000 0 9007647.305 -16435102.189 -17283799.315 10 0 60983 16200.00000 0 8928286.179 -14181846.654 -19213811.462 10 0 60983 17100.00000 0 9023702.461 -11714448.811 -20770091.810 10 0 60983 18000.00000 0 9316551.653 -9094844.580 -21922428.141 10 0 60983 18900.00000 0 9818059.802 -6389494.661 -22648479.688 10 0 60983 19800.00000 0 10527427.595 -3666830.299 -22934206.607 10 0 60983 20700.00000 0 11431757.645 -994627.063 -22774136.959 10 0 60983 21600.00000 0 12506508.040 1562584.482 -22171466.648 10 0 60983 22500.00000 0 13716453.095 3945964.174 -21137990.907 10 0 60983 23400.00000 0 15017110.911 6104562.878 -19693869.113 10 0 60983 24300.00000 0 16356577.803 7997187.957 -17867227.819 10 0 60983 25200.00000 0 17677692.614 9593857.314 -15693609.894 10 0 60983 26100.00000 0 18920440.077 10876782.927 -13215280.563 10 0 60983 27000.00000 0 20024492.360 11840844.530 -10480403.852 10 0 60983 27900.00000 0 20931782.108 12493535.373 -7542105.426 10 0 60983 28800.00000 0 21588998.917 12854384.030 -4457440.068 10 0 60983 29700.00000 0 21949904.350 12953878.164 -1286283.893 10 0 60983 30600.00000 0 21977368.229 12831936.920 1909827.129 10 0 60983 31500.00000 0 21645040.548 12535997.463 5068889.683 10 0 60983 32400.00000 0 20938588.745 12118797.244 8129633.426 10 0 60983 33300.00000 0 19856448.143 11635946.151 11032705.901 10 0 60983 34200.00000 0 18410053.887 11143391.376 13721819.114 10 0 60983 35100.00000 0 16623544.226 10694882.020 16144835.871 10 0 60983 36000.00000 0 14532947.003 10339540.346 18254775.212 10 0 60983 36900.00000 0 12184882.643 10119641.865 20010718.013 10 0 60983 37800.00000 0 9634836.856 10068697.571 21378595.835 10 0 60983 38700.00000 0 6945073.902 10209918.937 22331848.382 10 0 60983 39600.00000 0 4182276.063 10555130.299 22851937.379 10 0 60983 40500.00000 0 1415006.134 11104174.612 22928707.294 10 0 60983 41400.00000 0 -1288903.060 11844838.130 22560586.092 10 0 60983 42300.00000 0 -3864924.967 12753297.990 21754621.923 10 0 60983 43200.00000 0 -6254275.665 13795074.992 20526354.630 10 0 60983 44100.00000 0 -8406110.064 14926452.742 18899523.801 10 0 60983 45000.00000 0 -10279387.401 16096304.767 16905618.085 10 0 60983 45900.00000 0 -11844328.972 17248253.913 14583273.503 10 0 60983 46800.00000 0 -13083407.743 18323074.052 11977531.342 10 0 60983 47700.00000 0 -13991828.767 19261233.517 9138969.215 10 0 60983 48600.00000 0 -14577480.592 20005473.210 6122721.502 10 0 60983 49500.00000 0 -14860360.035 20503310.383 2987407.902 10 0 60983 50400.00000 0 -14871494.918 20709361.739 -206008.986 10 0 60983 51300.00000 0 -14651410.760 20587386.800 -3395414.413 10 0 60983 52200.00000 0 -14248206.893 20111964.079 -6518756.716 10 0 60983 53100.00000 0 -13715324.202 19269728.031 -9515262.403 10 0 60983 54000.00000 0 -13109099.890 18060113.372 -12326626.506 10 0 60983 54900.00000 0 -12486213.798 16495574.262 -14898154.080 10 0 60983 55800.00000 0 -11901135.301 14601268.255 -17179829.824 10 0 60983 56700.00000 0 -11403679.641 12414217.546 -19127294.479 10 0 60983 57600.00000 0 -11036777.711 9981982.209 -20702708.793 10 0 60983 58500.00000 0 -10834553.905 7360900.669 -21875488.214 10 0 60983 59400.00000 0 -10820793.421 4613970.657 -22622894.364 10 0 60983 60300.00000 0 -11007863.622 1808458.869 -22930472.272 10 0 60983 61200.00000 0 -11396134.741 -986661.338 -22792325.424 10 0 60983 62100.00000 0 -11973924.032 -3703337.993 -22211223.928 10 0 60983 63000.00000 0 -12717965.362 -6277025.567 -21198544.235 10 0 60983 63900.00000 0 -13594384.162 -8649120.313 -19774042.057 10 0 60983 64800.00000 0 -14560136.422 -10769145.608 -17965463.198 10 0 60983 65700.00000 0 -15564850.962 -12596597.568 -15808000.074 10 0 60983 66600.00000 0 -16552997.319 -14102375.415 -13343604.546 10 0 60983 67500.00000 0 -17466287.906 -15269738.453 -10620170.468 10 0 60983 68400.00000 0 -18246213.308 -16094751.281 -7690601.774 10 0 60983 69300.00000 0 -18836603.880 -16586200.227 -4611784.271 10 0 60983 70200.00000 0 -19186109.786 -16764986.070 -1443481.131 10 0 60983 71100.00000 0 -19250494.963 -16663020.020 1752826.425 10 0 60983 72000.00000 0 -18994648.327 -16321670.625 4915130.599 10 0 60983 72900.00000 0 -18394227.433 -15789828.025 7982097.488 10 0 60983 73800.00000 0 -17436865.208 -15121667.835 10894253.278 10 0 60983 74700.00000 0 -16122888.709 -14374209.359 13595133.251 10 0 60983 75600.00000 0 -14465519.265 -13604771.225 16032371.568 10 0 60983 76500.00000 0 -12490544.907 -12868431.573 18158711.203 10 0 60983 77400.00000 0 -10235477.997 -12215599.513 19932914.890 10 0 60983 78300.00000 0 -7748232.146 -11689799.707 21320560.135 10 0 60983 79200.00000 0 -5085372.375 -11325762.879 22294703.520 10 0 60983 80100.00000 0 -2310010.004 -11147902.236 22836401.940 10 0 60983 81000.00000 0 510571.652 -11169239.651 22935081.127 10 0 60983 81900.00000 0 3307463.669 -11390826.832 22588744.427 10 0 60983 82800.00000 0 6012745.646 -11801686.115 21804017.659 10 0 60983 83700.00000 0 8562060.359 -12379273.971 20596028.742 10 0 60983 84600.00000 0 10897043.151 -13090448.564 18988123.681 10 0 60983 85500.00000 0 12967505.882 -13892901.553 17011423.501 10 0 60984 0.00000 0 14733285.078 -14736994.770 14704229.906 10 0 60984 900.00000 0 16165678.517 -15567925.616 12111288.853 10 0 60984 1800.00000 0 17248408.206 -16328129.306 9282928.639 10 0 60984 2700.00000 0 17978072.773 -16959818.317 6274084.493 10 0 60984 3600.00000 0 18364068.014 -17407550.486 3143231.299 10 0 60984 4500.00000 0 18427980.198 -17620717.142 -48755.891 10 0 60984 5400.00000 0 18202477.867 -17555845.088 -3239790.788 10 0 60984 6300.00000 0 17729749.418 -17178613.973 -6367790.460 10 0 60984 7200.00000 0 17059553.147 -16465502.478 -9371890.988 10 0 60984 8100.00000 0 16246963.012 -15404992.389 -12193639.577 10 0 60984 9000.00000 0 15349906.318 -13998278.485 -14778138.976 10 0 60984 9900.00000 0 14426598.331 -12259453.131 -17075121.106 10 0 60984 10800.00000 0 13532983.058 -10215156.848 -19039928.485 10 0 60984 11700.00000 0 12720288.908 -7903708.715 -20634384.074 10 0 60984 12600.00000 0 12032802.812 -5373752.471 -21827532.632 10 0 60984 13500.00000 0 11505956.788 -2682474.481 -22596239.460 10 0 60984 14400.00000 0 11164807.442 106532.450 -22925635.369 10 0 60984 15300.00000 0 11022972.059 2925670.696 -22809399.806 10 0 60984 16200.00000 0 11082065.492 5705905.297 -22249877.246 10 0 60984 17100.00000 0 11331660.862 8379391.061 -21258025.163 10 0 60984 18000.00000 0 11749775.030 10882050.650 -19853195.038 10 0 60984 18900.00000 0 12303857.696 13155997.283 -18062751.020 10 0 60984 19800.00000 0 12952241.925 15151702.275 -15921533.796 10 0 60984 20700.00000 0 13645994.476 16829818.255 -13471180.223 10 0 60984 21600.00000 0 14331087.624 18162583.371 -10759311.954 10 0 60984 22500.00000 0 14950800.647 19134749.234 -7838608.797 10 0 60984 23400.00000 0 15448249.484 19743995.251 -4765784.840 10 0 60984 24300.00000 0 15768937.770 20000813.403 -1600487.280 10 0 60984 25200.00000 0 15863221.475 19927869.732 1595860.641 10 0 60984 26100.00000 0 15688583.088 19558870.544 4761249.985 10 0 60984 27000.00000 0 15211619.284 18936982.066 7834286.625 10 0 60984 27900.00000 0 14409658.094 18112870.859 10755378.634 10 0 60984 28800.00000 0 13271937.122 17142447.973 13467887.620 10 0 60984 29700.00000 0 11800292.794 16084412.044 15919221.945 10 0 60984 30600.00000 0 10009330.973 14997694.675 18061851.064 10 0 60984 31500.00000 0 7926070.906 13938915.287 19854221.832 10 0 60984 32400.00000 0 5589076.255 12959951.983 21261559.641 10 0 60984 33300.00000 0 3047108.166 12105729.907 22256539.533 10 0 60984 34200.00000 0 357355.040 11412319.422 22819814.780 10 0 60984 35100.00000 0 -2416688.910 10905423.426 22940393.149 10 0 60984 36000.00000 0 -5207609.773 10599316.964 22615853.677 10 0 60984 36900.00000 0 -7946627.126 10496283.510 21852399.658 10 0 60984 37800.00000 0 -10566209.725 10586571.703 20664746.355 10 0 60984 38700.00000 0 -13002646.253 10848874.697 19075844.941 10 0 60984 39600.00000 0 -15198465.213 11251312.487 17116447.059 10 0 60984 40500.00000 0 -17104603.936 11752876.458 14824517.463 10 0 60984 41400.00000 0 -18682236.737 12305275.879 12244505.057 10 0 60984 42300.00000 0 -19904186.028 12855108.886 9426485.647 10 0 60984 43200.00000 0 -20755857.423 13346266.476 6425192.366 10 0 60984 44100.00000 0 -21235659.620 13722467.803 3298952.284 10 0 60984 45000.00000 0 -21354891.397 13929819.023 108549.935 10 0 60984 45900.00000 0 -21137100.655 13919286.654 -3083959.764 10 0 60984 46800.00000 0 -20616942.759 13648979.620 -6216465.428 10 0 60984 47700.00000 0 -19838586.850 13086142.148 -9228015.404 10 0 60984 48600.00000 0 -18853738.039 12208771.834 -12060011.607 10 0 60984 49500.00000 0 -17719359.786 11006793.096 -14657356.834 10 0 60984 50400.00000 0 -16495193.445 9482735.208 -16969532.364 10 0 60984 51300.00000 0 -15241180.452 7651885.161 -18951584.355 10 0 60984 52200.00000 0 -14014896.486 5541907.919 -20564999.568 10 0 60984 53100.00000 0 -12869106.177 3191949.173 -21778453.359 10 0 60984 54000.00000 0 -11849541.424 651257.513 -22568415.691 10 0 60984 54900.00000 0 -10992996.631 -2022616.973 -22919603.850 10 0 60984 55800.00000 0 -10325820.483 -4765972.956 -22825273.633 10 0 60984 56700.00000 0 -9862866.903 -7511367.861 -22287343.970 10 0 60984 57600.00000 0 -9606948.360 -10190187.773 -21316353.137 10 0 60984 58500.00000 0 -9548813.474 -12735270.888 -19931247.863 10 0 60984 59400.00000 0 -9667648.790 -15083476.070 -18159009.794 10 0 60984 60300.00000 0 -9932082.599 -17178090.402 -16034126.755 10 0 60984 61200.00000 0 -10301647.655 -18970976.410 -13597919.187 10 0 60984 62100.00000 0 -10728640.378 -20424370.473 -10897734.896 10 0 60984 63000.00000 0 -11160297.553 -21512258.520 -7986027.702 10 0 60984 63900.00000 0 -11541198.211 -22221272.688 -4919337.947 10 0 60984 64800.00000 0 -11815788.959 -22551072.660 -1757194.658 10 0 60984 65700.00000 0 -11930925.858 -22514196.908 1439039.245 10 0 60984 66600.00000 0 -11838325.309 -22135391.197 4607356.183 10 0 60984 67500.00000 0 -11496820.280 -21450443.538 7686304.446 10 0 60984 68400.00000 0 -10874326.432 -20504575.351 10616176.760 10 0 60984 69300.00000 0 -9949434.937 -19350457.000 13340163.903 10 0 60984 70200.00000 0 -8712564.465 -18045931.408 15805451.286 10 0 60984 71100.00000 0 -7166623.249 -16651541.396 17964237.630 10 0 60984 72000.00000 0 -5327152.568 -15227964.333 19774656.531 10 0 60984 72900.00000 0 -3221944.554 -13833461.310 21201583.647 10 0 60984 73800.00000 0 -890148.929 -12521447.136 22217314.544 10 0 60984 74700.00000 0 1619095.539 -11338282.343 22802100.582 10 0 60984 75600.00000 0 4248449.502 -10321378.945 22944532.876 10 0 60984 76500.00000 0 6934508.756 -9497698.690 22641767.075 10 0 60984 77400.00000 0 9610200.027 -8882706.217 21899584.457 10 0 60984 78300.00000 0 12207338.860 -8479820.687 20732287.760 10 0 60984 79200.00000 0 14659244.622 -8280388.834 19162433.046 10 0 60984 80100.00000 0 16903304.886 -8264180.624 17220401.915 10 0 60984 81000.00000 0 18883383.231 -8400386.926 14943821.320 10 0 60984 81900.00000 0 20551970.469 -8649077.490 12376841.214 10 0 60984 82800.00000 0 21871989.633 -8963057.943 9569283.189 10 0 60984 83700.00000 0 22818179.136 -9290047.527 6575675.949 10 0 60984 84600.00000 0 23377995.958 -9575085.343 3454196.036 10 0 60984 85500.00000 0 23552000.700 -9763062.874 265534.425 10 0 60985 0.00000 0 23353708.226 -9801274.802 -2928288.307 10 0 60985 900.00000 0 22808909.995 -9641879.102 -6065136.261 10 0 60985 1800.00000 0 21954497.205 -9244160.911 -9083973.110 10 0 60985 2700.00000 0 20836834.411 -8576503.100 -11926058.710 10 0 60985 3600.00000 0 19509752.955 -7617978.640 -14536098.938 10 0 60985 4500.00000 0 18032249.469 -6359496.179 -16863327.224 10 0 60985 5400.00000 0 16465987.141 -4804449.201 -18862495.899 10 0 60985 6300.00000 0 14872705.547 -2968840.269 -20494757.779 10 0 60985 7200.00000 0 13311648.520 -880874.192 -21728420.792 10 0 60985 8100.00000 0 11837118.298 1419963.672 -22539561.245 10 0 60985 9000.00000 0 10496258.549 3884306.084 -22912484.269 10 0 60985 9900.00000 0 9327158.874 6454721.652 -22840023.058 10 0 60985 10800.00000 0 8357359.492 9067876.334 -22323671.701 10 0 60985 11700.00000 0 7602817.793 11656949.114 -21373549.615 10 0 60985 12600.00000 0 7067378.882 14154201.740 -20008198.740 10 0 60985 13500.00000 0 6742770.983 16493596.088 -18254217.789 10 0 60985 14400.00000 0 6609124.529 18613350.819 -16145740.874 10 0 60985 15300.00000 0 6635991.839 20458331.463 -13723770.745 10 0 60985 16200.00000 0 6783823.259 21982175.098 -11035379.642 10 0 60985 17100.00000 0 7005836.599 23149061.802 -8132793.242 10 0 60985 18000.00000 0 7250200.192 23935059.768 -5072375.565 10 0 60985 18900.00000 0 7462436.777 24328988.786 -1913534.531 10 0 60985 19800.00000 0 7587946.224 24332766.923 1282430.494 10 0 60985 20700.00000 0 7574540.153 23961226.765 4453516.708 10 0 60985 21600.00000 0 7374881.099 23241409.814 7538218.322 10 0 60985 22500.00000 0 6948722.960 22211369.349 10476716.199 10 0 60985 23400.00000 0 6264857.908 20918532.508 13212033.669 10 0 60985 24300.00000 0 5302687.291 19417690.626 15691136.386 10 0 60985 25200.00000 0 4053349.859 17768702.148 17865955.300 10 0 60985 26100.00000 0 2520359.138 16034004.199 19694313.425 10 0 60985 27000.00000 0 719722.224 14276036.597 21140739.045 10 0 60985 27900.00000 0 -1320466.229 12554685.457 22177150.254 10 0 60985 28800.00000 0 -3560939.323 10924852.559 22783398.090 10 0 60985 29700.00000 0 -5952645.959 9434251.240 22947658.165 10 0 60985 30600.00000 0 -8438555.543 8121520.104 22666663.377 10 0 60985 31500.00000 0 -10955805.920 7014732.666 21945773.089 10 0 60985 32400.00000 0 -13438106.827 6130364.652 20798877.028 10 0 60985 33300.00000 0 -15818300.320 5472761.731 19248135.092 10 0 60985 34200.00000 0 -18030972.741 5034129.754 17323557.212 10 0 60985 35100.00000 0 -20015010.257 4795047.759 15062430.410 10 0 60985 36000.00000 0 -21715991.868 4725482.163 12508603.135 10 0 60985 36900.00000 0 -23088320.047 4786259.431 9711639.883 10 0 60985 37800.00000 0 -24096999.706 4930934.989 6725861.846 10 0 60985 38700.00000 0 -24718990.639 5107979.230 3609291.852 10 0 60985 39600.00000 0 -24944076.172 5263187.668 422524.130 10 0 60985 40500.00000 0 -24775211.107 5342212.500 -2772458.786 10 0 60985 41400.00000 0 -24228334.000 5293107.388 -5913498.357 10 0 60985 42300.00000 0 -23331651.536 5068776.456 -8939477.046 10 0 60985 43200.00000 0 -22124425.239 4629222.453 -11791515.392 10 0 60985 44100.00000 0 -20655311.924 3943497.519 -14414124.896 10 0 60985 45000.00000 0 -18980328.273 2991272.668 -16756293.452 10 0 60985 45900.00000 0 -17160525.739 1763958.399 -18772481.587 10 0 60985 46800.00000 0 -15259474.099 265327.996 -20423509.864 10 0 60985 47700.00000 0 -13340659.800 -1488383.756 -21677320.090 10 0 60985 48600.00000 0 -11464908.498 -3468911.460 -22509595.835 10 0 60985 49500.00000 0 -9687939.741 -5636902.304 -22904230.599 10 0 60985 50400.00000 0 -8058155.872 -7943332.686 -22853635.111 10 0 60985 51300.00000 0 -6614756.963 -10331339.610 -22358878.405 10 0 60985 52200.00000 0 -5386259.635 -12738390.909 -21429660.507 10 0 60985 53100.00000 0 -4389480.483 -15098704.198 -20084117.738 10 0 60985 54000.00000 0 -3629025.186 -17345814.202 -18348464.794 10 0 60985 54900.00000 0 -3097303.117 -19415181.902 -16256480.768 10 0 60985 55800.00000 0 -2775065.280 -21246737.210 -13848849.214 10 0 60985 56700.00000 0 -2632441.433 -22787249.644 -11172365.146 10 0 60985 57600.00000 0 -2630431.392 -23992428.621 -8279024.315 10 0 60985 58500.00000 0 -2722786.526 -24828666.232 -5225012.524 10 0 60985 59400.00000 0 -2858201.101 -25274350.284 -2069614.605 10 0 60985 60300.00000 0 -2982720.228 -25320693.327 1125935.711 10 0 60985 61200.00000 0 -3042262.119 -24972043.623 4299642.575 10 0 60985 62100.00000 0 -2985147.694 -24245665.664 7389948.409 10 0 60985 63000.00000 0 -2764530.352 -23170999.980 10336924.600 10 0 60985 63900.00000 0 -2340623.036 -21788433.681 13083429.496 10 0 60985 64800.00000 0 -1682628.357 -20147633.504 15576211.493 10 0 60985 65700.00000 0 -770290.003 -18305511.140 17766936.240 10 0 60985 66600.00000 0 405000.386 -16323905.845 19613118.539 10 0 60985 67500.00000 0 1839588.195 -14267080.721 21078941.488 10 0 60985 68400.00000 0 3517459.495 -12199136.637 22135947.661 10 0 60985 69300.00000 0 5410668.728 -10181450.921 22763589.434 10 0 60985 70200.00000 0 7480274.032 -8270246.778 22949628.246 10 0 60985 71100.00000 0 9677742.875 -6514393.820 22690375.241 10 0 60985 72000.00000 0 11946771.056 -4953530.594 21990768.515 10 0 60985 72900.00000 0 14225440.995 -3616586.606 20864285.095 10 0 60985 73800.00000 0 16448630.887 -2520764.887 19332688.682 10 0 60985 74700.00000 0 18550575.583 -1671027.149 17425617.171 10 0 60985 75600.00000 0 20467473.322 -1060102.685 15180016.941 10 0 60985 76500.00000 0 22140030.059 -669020.383 12639433.852 10 0 60985 77400.00000 0 23515835.193 -468141.237 9853173.845 10 0 60985 78300.00000 0 24551469.056 -418647.635 6875348.755 10 0 60985 79200.00000 0 25214253.387 -474426.227 3763825.470 10 0 60985 80100.00000 0 25483570.670 -584264.306 579098.900 10 0 60985 81000.00000 0 25351696.195 -694266.050 -2616889.022 10 0 60985 81900.00000 0 24824107.240 -750385.405 -5761960.724 10 0 60985 82800.00000 0 23919255.853 -700967.177 -8794920.293 10 0 60985 83700.00000 0 22667814.544 -499187.417 -11656752.031 10 0 60985 84600.00000 0 21111426.603 -105288.439 -14291776.056 10 0 60985 85500.00000 0 19301013.812 511487.489 -16648737.537 99